TimeEDT,TemperatureF,Dew PointF,Humidity,Sea Level PressureIn,VisibilityMPH,Wind Direction,Wind SpeedMPH,Gust SpeedMPH,PrecipitationIn,Events,Conditions,WindDirDegrees,DateUTC
12:53 AM,50.0,43.0,77,30.12,10.0,NNE,4.6,-,N/A,,Overcast,30,2012-10-08 04:53:00
1:53 AM,50.0,43.0,77,30.12,10.0,NE,3.5,-,N/A,,Overcast,40,2012-10-08 05:53:00
2:53 AM,50.0,41.0,71,30.13,10.0,NE,5.8,-,N/A,,Overcast,40,2012-10-08 06:53:00
3:53 AM,50.0,39.9,68,30.12,10.0,NE,4.6,-,N/A,,Overcast,50,2012-10-08 07:53:00
4:53 AM,48.9,41.0,74,30.13,10.0,North,5.8,-,N/A,,Overcast,360,2012-10-08 08:53:00
5:53 AM,48.9,39.9,71,30.14,10.0,NNE,6.9,-,N/A,,Overcast,20,2012-10-08 09:53:00
6:53 AM,48.9,41.0,74,30.14,10.0,NNE,3.5,-,N/A,,Overcast,20,2012-10-08 10:53:00
7:53 AM,48.9,42.1,77,30.15,10.0,North,3.5,-,0.00,,Overcast,10,2012-10-08 11:53:00
8:53 AM,48.9,42.1,77,30.16,10.0,NNE,6.9,-,N/A,,Overcast,20,2012-10-08 12:53:00
9:53 AM,50.0,39.9,68,30.18,10.0,NNE,4.6,-,N/A,,Overcast,30,2012-10-08 13:53:00
10:53 AM,50.0,39.9,68,30.19,10.0,ENE,8.1,-,N/A,,Overcast,60,2012-10-08 14:53:00
11:11 AM,50.0,41.0,71,30.22,10.0,NE,6.9,-,N/A,,Overcast,50,2012-10-08 15:11:00
11:53 AM,50.0,42.1,74,30.19,10.0,NE,9.2,-,N/A,,Overcast,50,2012-10-08 15:53:00
12:10 PM,50.0,42.8,76,30.22,10.0,ENE,9.2,-,N/A,,Overcast,60,2012-10-08 16:10:00
12:30 PM,50.0,42.8,76,30.22,10.0,NNE,9.2,-,N/A,,Overcast,30,2012-10-08 16:30:00
12:53 PM,50.0,42.1,74,30.18,10.0,NNE,9.2,-,N/A,,Overcast,30,2012-10-08 16:53:00
1:53 PM,50.0,42.1,74,30.16,10.0,NNE,6.9,-,N/A,,Overcast,20,2012-10-08 17:53:00
2:53 PM,48.0,43.0,83,30.14,6.0,North,6.9,-,0.00,Rain,Light Rain,360,2012-10-08 18:53:00
3:04 PM,46.4,42.8,87,30.17,3.0,North,6.9,-,0.00,Rain,Light Rain,360,2012-10-08 19:04:00
3:53 PM,48.0,44.1,86,30.14,7.0,North,6.9,-,0.01,,Overcast,10,2012-10-08 19:53:00
4:33 PM,48.2,44.6,87,30.15,10.0,NNE,8.1,-,N/A,,Overcast,20,2012-10-08 20:33:00
4:53 PM,48.0,44.1,86,30.12,10.0,NNE,6.9,-,N/A,,Overcast,30,2012-10-08 20:53:00
5:43 PM,48.2,42.8,82,30.14,10.0,NE,6.9,-,N/A,,Overcast,50,2012-10-08 21:43:00
5:53 PM,48.0,43.0,83,30.12,10.0,NE,6.9,-,N/A,,Overcast,40,2012-10-08 21:53:00
6:20 PM,48.2,42.8,82,30.15,10.0,NE,6.9,-,N/A,,Overcast,50,2012-10-08 22:20:00
6:53 PM,48.0,43.0,83,30.13,10.0,NE,5.8,-,N/A,,Overcast,50,2012-10-08 22:53:00
8:19 PM,46.4,42.8,87,30.17,10.0,NE,4.6,-,N/A,,Overcast,50,2012-10-09 00:19:00
8:53 PM,46.9,44.1,90,30.14,10.0,NE,8.1,-,N/A,,Overcast,50,2012-10-09 00:53:00
9:18 PM,46.4,44.6,93,30.17,7.0,East,3.5,-,N/A,,Overcast,90,2012-10-09 01:18:00
9:53 PM,46.9,44.1,90,30.15,10.0,ENE,3.5,-,N/A,,Overcast,70,2012-10-09 01:53:00
10:53 PM,46.9,44.1,90,30.16,10.0,ENE,4.6,-,N/A,,Overcast,70,2012-10-09 02:53:00
11:53 PM,46.0,43.0,89,30.15,10.0,ENE,5.8,-,N/A,,Overcast,60,2012-10-09 03:53:00